NOAA 15

Last updated on Sat Apr 13 2024 01:02:16 GMT+0100 (British Summer Time)

1 25338U 98030A 24103.58742738 .00000224 00000+0 11064-3 0 9997 2 25338 98.5756 132.0670 0011004 151.2701 208.9088 14.26531836347834
UTC large
Height (km)
Speed (km/s)
/
Latitude / Longitude
Inclination (degrees)
Orbital Period (minutes)
Azimuth
Elevation
Range (km)
Doppler Factor

Next 0 passes for location: London (51.5072 / 0.1276)

Sorry there are no passes over London.